,,Stat6,,Stat2,,Stat8,,Stat9,,Stat10,,Wind1,,Wind1,
time,status,PA1M_AVG,status,PR1M_SUM,status,RH1M_AVG,status,SR1M_AVG,status,TA1M_AVG,status,W1dAve1m,status,W1sAve1m,
2003-12-07, 00:00:00,VALID,916.77,VALID,0,VALID,100,VALID,-0.0509425,VALID,19.2215,VALID,227,VALID,0,
2003-12-07, 00:01:00,VALID,916.753,VALID,0,VALID,100,VALID,-0.101885,VALID,19.2317,VALID,227,VALID,0,
2003-12-07, 00:02:00,VALID,916.735,VALID,0,VALID,100,VALID,0,VALID,19.231,VALID,227,VALID,0,
2003-12-07, 00:03:00,VALID,916.716,VALID,0,VALID,100,VALID,0,VALID,19.2272,VALID,227,VALID,0,
2003-12-07, 00:04:00,VALID,916.724,VALID,0,VALID,100,VALID,0,VALID,19.2406,VALID,227,VALID,0,
2003-12-07, 00:05:00,VALID,916.721,VALID,0,VALID,100,VALID,-0.0679233,VALID,19.2439,VALID,227,VALID,0,
2003-12-07, 00:06:00,VALID,916.722,VALID,0,VALID,100,VALID,-0.0339617,VALID,19.2605,VALID,227,VALID,0,
2003-12-07, 00:07:00,VALID,916.71,VALID,0,VALID,100,VALID,0,VALID,19.2697,VALID,227,VALID,0,
2003-12-07, 00:08:00,VALID,916.722,VALID,0,VALID,100,VALID,0,VALID,19.2891,VALID,227,VALID,0,
2003-12-07, 00:09:00,VALID,916.719,VALID,0,VALID,100,VALID,0,VALID,19.2856,VALID,227,VALID,0,
2003-12-07, 00:10:00,VALID,916.721,VALID,0,VALID,100,VALID,-0.0169808,VALID,19.2953,VALID,227,VALID,0,
2003-12-07, 00:11:00,VALID,916.714,VALID,0,VALID,100,VALID,0.0169808,VALID,19.3112,VALID,262,VALID,0.346955,
2003-12-07, 00:12:00,VALID,916.695,VALID,0,VALID,100,VALID,0,VALID,19.2787,VALID,14,VALID,0.482922,
2003-12-07, 00:13:00,VALID,916.683,VALID,0,VALID,100,VALID,0,VALID,19.2402,VALID,14,VALID,0.466211,
2003-12-07, 00:14:00,VALID,916.667,VALID,0,VALID,100,VALID,-0.0169808,VALID,19.1696,VALID,14,VALID,0.572129,
2003-12-07, 00:15:00,VALID,916.659,VALID,0,VALID,100,VALID,0,VALID,19.1276,VALID,14,VALID,0.493786,
2003-12-07, 00:16:00,VALID,916.648,VALID,0,VALID,100,VALID,0,VALID,19.1214,VALID,14,VALID,0.42242,
2003-12-07, 00:17:00,VALID,916.637,VALID,0,VALID,100,VALID,0,VALID,19.1246,VALID,14,VALID,0.402071,
2003-12-07, 00:18:00,VALID,916.641,VALID,0,VALID,100,VALID,-0.0169808,VALID,19.0981,VALID,25,VALID,0.532493,
2003-12-07, 00:19:00,VALID,916.625,VALID,0,VALID,100,VALID,0,VALID,19.0852,VALID,25,VALID,0.526215,
2003-12-07, 00:20:00,VALID,916.634,VALID,0,VALID,100,VALID,0,VALID,19.0891,VALID,25,VALID,0.38316,
2003-12-07, 00:21:00,VALID,916.625,VALID,0,VALID,100,VALID,0,VALID,19.0757,VALID,26,VALID,0.428711,
2003-12-07, 00:22:00,VALID,916.614,VALID,0,VALID,100,VALID,0,VALID,19.0598,VALID,32,VALID,0.389423,
2003-12-07, 00:23:00,VALID,916.607,VALID,0,VALID,100,VALID,0,VALID,19.0501,VALID,40,VALID,0.326029,
2003-12-07, 00:24:00,VALID,916.59,VALID,0,VALID,100,VALID,-0.0169808,VALID,19.0139,VALID,55,VALID,0.495536,
2003-12-07, 00:25:00,VALID,916.579,VALID,0,VALID,100,VALID,0,VALID,18.9724,VALID,55,VALID,0.424733,
2003-12-07, 00:26:00,VALID,916.561,VALID,0,VALID,100,VALID,0.0169808,VALID,18.9759,VALID,55,VALID,0.504092,
2003-12-07, 00:27:00,VALID,916.575,VALID,0,VALID,100,VALID,0,VALID,18.9629,VALID,54,VALID,0.391335,
2003-12-07, 00:28:00,VALID,916.559,VALID,0,VALID,100,VALID,0,VALID,18.9466,VALID,54,VALID,0.211664,
2003-12-07, 00:29:00,VALID,916.554,VALID,0,VALID,100,VALID,-0.0169808,VALID,18.9371,VALID,54,VALID,0.534979,
2003-12-07, 00:30:00,VALID,916.552,VALID,0,VALID,100,VALID,0,VALID,18.9369,VALID,54,VALID,0.494549,
2003-12-07, 00:31:00,VALID,916.564,VALID,0,VALID,100,VALID,0.0169808,VALID,18.9336,VALID,54,VALID,0.559338,
2003-12-07, 00:32:00,VALID,916.55,VALID,0,VALID,100,VALID,0,VALID,18.9175,VALID,53,VALID,0.658203,
2003-12-07, 00:33:00,VALID,916.543,VALID,0,VALID,100,VALID,0.0169808,VALID,18.9175,VALID,52,VALID,0.746094,
2003-12-07, 00:34:00,VALID,916.522,VALID,0,VALID,100,VALID,0,VALID,18.8887,VALID,49,VALID,0.6121,
2003-12-07, 00:35:00,VALID,916.511,VALID,0,VALID,100,VALID,0,VALID,18.879,VALID,24,VALID,0.575763,
2003-12-07, 00:36:00,VALID,916.493,VALID,0,VALID,100,VALID,0,VALID,18.8594,VALID,27,VALID,0.513281,
2003-12-07, 00:37:00,VALID,916.491,VALID,0,VALID,100,VALID,0.0169808,VALID,18.8469,VALID,35,VALID,0.486328,
2003-12-07, 00:38:00,VALID,916.472,VALID,0,VALID,100,VALID,0,VALID,18.8398,VALID,38,VALID,0.464753,
2003-12-07, 00:39:00,VALID,916.464,VALID,0,VALID,100,VALID,0,VALID,18.8301,VALID,61,VALID,0.467507,
2003-12-07, 00:40:00,VALID,916.458,VALID,0,VALID,100,VALID,0,VALID,18.8368,VALID,62,VALID,0.484908,
2003-12-07, 00:41:00,VALID,916.444,VALID,0,VALID,100,VALID,0.0169808,VALID,18.8273,VALID,76,VALID,0.416349,
2003-12-07, 00:42:00,VALID,916.464,VALID,0,VALID,100,VALID,0,VALID,18.8139,VALID,89,VALID,0.533975,
2003-12-07, 00:43:00,VALID,916.452,VALID,0,VALID,100,VALID,0,VALID,18.8335,VALID,121,VALID,0.53125,
2003-12-07, 00:44:00,VALID,916.439,VALID,0,VALID,100,VALID,0,VALID,18.8534,VALID,128,VALID,0.445833,
2003-12-07, 00:45:00,VALID,916.45,VALID,0,VALID,100,VALID,0,VALID,18.879,VALID,120,VALID,0.329578,
2003-12-07, 00:46:00,VALID,916.42,VALID,0,VALID,100,VALID,0,VALID,18.8892,VALID,119,VALID,0.433036,
2003-12-07, 00:47:00,VALID,916.425,VALID,0,VALID,100,VALID,0.0169808,VALID,18.9014,VALID,122,VALID,0.569425,
2003-12-07, 00:48:00,VALID,916.427,VALID,0,VALID,100,VALID,0,VALID,18.911,VALID,137,VALID,0.579985,
2003-12-07, 00:49:00,VALID,916.427,VALID,0,VALID,100,VALID,0,VALID,18.9244,VALID,135,VALID,0.461496,
2003-12-07, 00:50:00,VALID,916.406,VALID,0,VALID,100,VALID,0,VALID,18.9177,VALID,135,VALID,0.411701,
2003-12-07, 00:51:00,VALID,916.399,VALID,0,VALID,100,VALID,0,VALID,18.918,VALID,134,VALID,0.428199,
2003-12-07, 00:52:00,VALID,916.394,VALID,0,VALID,100,VALID,-0.0169808,VALID,18.9177,VALID,127,VALID,0.356831,
2003-12-07, 00:53:00,VALID,916.373,VALID,0,VALID,100,VALID,0,VALID,18.9078,VALID,127,VALID,0.451601,
2003-12-07, 00:54:00,VALID,916.379,VALID,0,VALID,100,VALID,-0.0339617,VALID,18.9048,VALID,127,VALID,0.513363,
2003-12-07, 00:55:00,VALID,916.355,VALID,0,VALID,100,VALID,0,VALID,18.8949,VALID,128,VALID,0.541371,
2003-12-07, 00:56:00,VALID,916.343,VALID,0,VALID,100,VALID,0,VALID,18.9078,VALID,131,VALID,0.635174,
2003-12-07, 00:57:00,VALID,916.336,VALID,0,VALID,100,VALID,0,VALID,18.9011,VALID,139,VALID,0.598011,
2003-12-07, 00:58:00,VALID,916.335,VALID,0,VALID,100,VALID,0,VALID,18.9147,VALID,144,VALID,0.62872,
2003-12-07, 00:59:00,VALID,916.343,VALID,0,VALID,100,VALID,-0.0169808,VALID,18.9177,VALID,147,VALID,0.536345,
2003-12-07, 01:00:00,VALID,916.335,VALID,0,VALID,100,VALID,-0.0169808,VALID,18.9078,VALID,152,VALID,0.528832,
2003-12-07, 01:01:00,VALID,916.339,VALID,0,VALID,100,VALID,-0.0169808,VALID,18.9152,VALID,159,VALID,0.553943,
2003-12-07, 01:02:00,VALID,916.354,VALID,0.2,VALID,100,VALID,0.0169808,VALID,18.8887,VALID,158,VALID,0.571555,
2003-12-07, 01:03:00,VALID,916.343,VALID,0,VALID,100,VALID,0,VALID,18.8889,VALID,158,VALID,0.688301,
2003-12-07, 01:04:00,VALID,916.353,VALID,0,VALID,100,VALID,-0.0509425,VALID,18.8792,VALID,153,VALID,0.65024,
2003-12-07, 01:05:00,VALID,916.355,VALID,0,VALID,100,VALID,-0.0339617,VALID,18.8725,VALID,148,VALID,0.702592,
2003-12-07, 01:06:00,VALID,916.345,VALID,0,VALID,100,VALID,0,VALID,18.879,VALID,147,VALID,0.903846,
2003-12-07, 01:07:01,VALID,916.345,VALID,0,VALID,100,VALID,0,VALID,18.8787,VALID,146,VALID,0.950945,
2003-12-07, 01:08:00,VALID,916.329,VALID,0,VALID,100,VALID,-0.0169808,VALID,18.8887,VALID,145,VALID,0.839571,
2003-12-07, 01:09:01,VALID,916.31,VALID,0,VALID,100,VALID,-0.0169808,VALID,18.8919,VALID,141,VALID,0.89897,
2003-12-07, 01:10:00,VALID,916.294,VALID,0,VALID,100,VALID,0,VALID,18.8887,VALID,137,VALID,0.940044,
2003-12-07, 01:11:00,VALID,916.287,VALID,0,VALID,100,VALID,0,VALID,18.8951,VALID,134,VALID,0.982469,
2003-12-07, 01:12:00,VALID,916.276,VALID,0,VALID,100,VALID,0,VALID,18.9078,VALID,134,VALID,0.897347,
2003-12-07, 01:13:00,VALID,916.266,VALID,0,VALID,100,VALID,0,VALID,18.908,VALID,133,VALID,0.775645,
2003-12-07, 01:14:00,VALID,916.253,VALID,0,VALID,100,VALID,-0.0339617,VALID,18.924,VALID,138,VALID,0.885306,
2003-12-07, 01:15:00,VALID,916.23,VALID,0,VALID,100,VALID,0,VALID,18.9274,VALID,144,VALID,0.865589,
2003-12-07, 01:16:00,VALID,916.217,VALID,0,VALID,100,VALID,0,VALID,18.9403,VALID,147,VALID,0.879542,
2003-12-07, 01:17:01,VALID,916.205,VALID,0,VALID,100,VALID,0.0169808,VALID,18.9669,VALID,142,VALID,0.628906,
2003-12-07, 01:18:00,VALID,916.185,VALID,0,VALID,100,VALID,-0.0169808,VALID,18.9761,VALID,141,VALID,0.70348,
2003-12-07, 01:19:01,VALID,916.179,VALID,0,VALID,100,VALID,-0.0169808,VALID,18.9893,VALID,135,VALID,0.770275,
2003-12-07, 01:20:01,VALID,916.19,VALID,0,VALID,100,VALID,-0.0169808,VALID,19.0123,VALID,134,VALID,0.679497,
2003-12-07, 01:21:01,VALID,916.176,VALID,0,VALID,100,VALID,0,VALID,18.9853,VALID,131,VALID,0.893102,
2003-12-07, 01:22:00,VALID,916.165,VALID,0,VALID,100,VALID,-0.0509425,VALID,18.9853,VALID,125,VALID,1.03351,
2003-12-07, 01:23:01,VALID,916.141,VALID,0,VALID,100,VALID,-0.0169808,VALID,18.989,VALID,126,VALID,0.836285,
2003-12-07, 01:24:00,VALID,916.122,VALID,0.2,VALID,100,VALID,-0.0339617,VALID,18.9793,VALID,120,VALID,0.824963,
2003-12-07, 01:25:00,VALID,916.104,VALID,0,VALID,100,VALID,-0.0339617,VALID,18.983,VALID,124,VALID,0.905887,
2003-12-07, 01:26:00,VALID,916.095,VALID,0,VALID,100,VALID,0,VALID,18.9756,VALID,119,VALID,0.674237,
2003-12-07, 01:27:00,VALID,916.066,VALID,0,VALID,100,VALID,0,VALID,18.9761,VALID,126,VALID,1.08458,
2003-12-07, 01:28:00,VALID,916.05,VALID,0,VALID,100,VALID,0,VALID,18.9761,VALID,118,VALID,0.732955,
2003-12-07, 01:29:00,VALID,916.023,VALID,0,VALID,100,VALID,0.0169808,VALID,18.9692,VALID,110,VALID,0.595348,
2003-12-07, 01:30:00,VALID,915.995,VALID,0,VALID,100,VALID,0,VALID,18.9724,VALID,111,VALID,1.0426,
2003-12-07, 01:31:00,VALID,915.991,VALID,0,VALID,100,VALID,0.0169808,VALID,18.9657,VALID,97,VALID,0.476953,
2003-12-07, 01:32:01,VALID,915.975,VALID,0,VALID,100,VALID,0,VALID,18.9788,VALID,71,VALID,0.396913,
2003-12-07, 01:33:00,VALID,915.964,VALID,0,VALID,100,VALID,0,VALID,18.992,VALID,109,VALID,0.898056,
2003-12-07, 01:34:00,VALID,915.949,VALID,0,VALID,100,VALID,-0.0169808,VALID,18.9855,VALID,97,VALID,0.595052,
2003-12-07, 01:35:00,VALID,915.932,VALID,0,VALID,100,VALID,-0.0169808,VALID,18.9853,VALID,95,VALID,0.439732,
2003-12-07, 01:36:01,VALID,915.911,VALID,0,VALID,100,VALID,0,VALID,18.9987,VALID,106,VALID,0.789244,
2003-12-07, 01:37:00,VALID,915.892,VALID,0,VALID,100,VALID,0,VALID,18.9985,VALID,78,VALID,0.449033,
2003-12-07, 01:38:01,VALID,915.869,VALID,0,VALID,100,VALID,-0.0339617,VALID,19.0047,VALID,42,VALID,0.307292,
2003-12-07, 01:39:00,VALID,915.854,VALID,0,VALID,100,VALID,0,VALID,19.0178,VALID,44,VALID,0.0825076,
2003-12-07, 01:40:01,VALID,915.825,VALID,0,VALID,100,VALID,0,VALID,19.0014,VALID,106,VALID,0.571429,
2003-12-07, 01:41:01,VALID,915.822,VALID,0,VALID,100,VALID,-0.0169808,VALID,18.9985,VALID,137,VALID,0.517113,
2003-12-07, 01:42:00,VALID,915.808,VALID,0,VALID,100,VALID,0,VALID,18.9985,VALID,117,VALID,0.547585,
2003-12-07, 01:43:00,VALID,915.807,VALID,0,VALID,100,VALID,0.0169808,VALID,18.9791,VALID,117,VALID,0.540396,
2003-12-07, 01:44:01,VALID,915.793,VALID,0,VALID,100,VALID,0,VALID,18.9662,VALID,131,VALID,0.702604,
2003-12-07, 01:45:00,VALID,915.795,VALID,0,VALID,100,VALID,0,VALID,18.9369,VALID,121,VALID,0.678622,
2003-12-07, 01:46:00,VALID,915.781,VALID,0,VALID,100,VALID,0.0169808,VALID,18.9207,VALID,130,VALID,0.340144,
2003-12-07, 01:47:01,VALID,915.776,VALID,0,VALID,100,VALID,0,VALID,18.9279,VALID,128,VALID,0.542151,
2003-12-07, 01:48:00,VALID,915.756,VALID,0,VALID,100,VALID,-0.0169808,VALID,18.9311,VALID,138,VALID,0.458757,
2003-12-07, 01:49:01,VALID,915.732,VALID,0,VALID,100,VALID,0,VALID,18.9108,VALID,151,VALID,0.38418,
2003-12-07, 01:50:00,VALID,915.71,VALID,0,VALID,100,VALID,0,VALID,18.9279,VALID,168,VALID,0.288867,
2003-12-07, 01:51:00,VALID,915.686,VALID,0,VALID,100,VALID,0,VALID,18.9309,VALID,142,VALID,0.288681,
2003-12-07, 01:52:01,VALID,915.669,VALID,0,VALID,100,VALID,-0.0509425,VALID,18.9314,VALID,117,VALID,0.233696,
2003-12-07, 01:53:01,VALID,915.643,VALID,0,VALID,100,VALID,-0.0169808,VALID,18.9212,VALID,160,VALID,0.385417,
2003-12-07, 01:54:00,VALID,915.636,VALID,0,VALID,100,VALID,0,VALID,18.9311,VALID,149,VALID,0.24983,
2003-12-07, 01:55:00,VALID,915.639,VALID,0,VALID,100,VALID,-0.0339617,VALID,18.9242,VALID,126,VALID,0.315358,
2003-12-07, 01:56:00,VALID,915.641,VALID,0,VALID,100,VALID,0,VALID,18.9274,VALID,137,VALID,0.806686,
2003-12-07, 01:57:00,VALID,915.638,VALID,0,VALID,100,VALID,-0.0679233,VALID,18.9244,VALID,153,VALID,0.685023,
2003-12-07, 01:58:00,VALID,915.622,VALID,0,VALID,100,VALID,-0.0169808,VALID,18.9279,VALID,129,VALID,0.821584,
2003-12-07, 01:59:00,VALID,915.614,VALID,0,VALID,100,VALID,0,VALID,18.9212,VALID,133,VALID,0.910251,
2003-12-07, 02:00:00,VALID,915.61,VALID,0,VALID,100,VALID,0,VALID,18.9214,VALID,142,VALID,0.950994,
2003-12-07, 02:01:00,VALID,915.613,VALID,0,VALID,100,VALID,-0.0169808,VALID,18.9177,VALID,141,VALID,0.901228,
2003-12-07, 02:02:00,VALID,915.608,VALID,0,VALID,100,VALID,-0.0339617,VALID,18.9373,VALID,133,VALID,0.815104,
2003-12-07, 02:03:00,VALID,915.614,VALID,0,VALID,100,VALID,0,VALID,18.944,VALID,144,VALID,1.03958,
2003-12-07, 02:04:01,VALID,915.622,VALID,0,VALID,100,VALID,0,VALID,18.9339,VALID,129,VALID,0.805778,
2003-12-07, 02:05:00,VALID,915.608,VALID,0,VALID,100,VALID,-0.0339617,VALID,18.9475,VALID,142,VALID,0.710352,
2003-12-07, 02:06:00,VALID,915.621,VALID,0.2,VALID,100,VALID,0,VALID,18.957,VALID,145,VALID,0.79859,
2003-12-07, 02:07:00,VALID,915.624,VALID,0,VALID,100,VALID,-0.0169808,VALID,18.9438,VALID,128,VALID,1.07679,
2003-12-07, 02:08:01,VALID,915.608,VALID,0,VALID,100,VALID,-0.0169808,VALID,18.9403,VALID,145,VALID,1.24343,
2003-12-07, 02:09:00,VALID,915.605,VALID,0,VALID,100,VALID,-0.0339617,VALID,18.9503,VALID,141,VALID,0.836664,
2003-12-07, 02:10:00,VALID,915.612,VALID,0,VALID,100,VALID,-0.0169808,VALID,18.957,VALID,118,VALID,0.504954,
2003-12-07, 02:11:00,VALID,915.611,VALID,0,VALID,100,VALID,-0.0169808,VALID,18.9733,VALID,151,VALID,1.04874,
2003-12-07, 02:12:00,VALID,915.623,VALID,0,VALID,100,VALID,0.0169808,VALID,18.9604,VALID,157,VALID,0.513719,
2003-12-07, 02:13:00,VALID,915.632,VALID,0,VALID,100,VALID,-0.0169808,VALID,18.9726,VALID,164,VALID,0.446733,
2003-12-07, 02:14:00,VALID,915.63,VALID,0,VALID,100,VALID,-0.0339617,VALID,18.9731,VALID,183,VALID,0.384851,
2003-12-07, 02:15:00,VALID,915.624,VALID,0,VALID,100,VALID,-0.0169808,VALID,18.9731,VALID,162,VALID,0.39577,
2003-12-07, 02:16:00,VALID,915.607,VALID,0,VALID,100,VALID,0,VALID,18.9699,VALID,185,VALID,0.55369,
2003-12-07, 02:17:00,VALID,915.606,VALID,0,VALID,100,VALID,-0.0169808,VALID,18.9565,VALID,177,VALID,0.818496,
2003-12-07, 02:18:00,VALID,915.582,VALID,0,VALID,100,VALID,-0.0169808,VALID,18.9503,VALID,172,VALID,0.52763,
2003-12-07, 02:19:00,VALID,915.565,VALID,0,VALID,100,VALID,-0.0339617,VALID,18.944,VALID,171,VALID,0.741493,
2003-12-07, 02:20:00,VALID,915.538,VALID,0,VALID,100,VALID,-0.0679233,VALID,18.9277,VALID,167,VALID,0.488758,
2003-12-07, 02:21:01,VALID,915.522,VALID,0,VALID,100,VALID,-0.0679233,VALID,18.9314,VALID,125,VALID,0.554688,
2003-12-07, 02:22:01,VALID,915.486,VALID,0,VALID,100,VALID,-0.0339617,VALID,18.9182,VALID,142,VALID,0.850446,
2003-12-07, 02:23:00,VALID,915.463,VALID,0,VALID,100,VALID,-0.0339617,VALID,18.9217,VALID,140,VALID,0.978472,
2003-12-07, 02:24:00,VALID,915.445,VALID,0,VALID,100,VALID,0,VALID,18.909,VALID,141,VALID,1.29492,
2003-12-07, 02:25:00,VALID,915.429,VALID,0,VALID,100,VALID,-0.0339617,VALID,18.9053,VALID,148,VALID,1.30342,
2003-12-07, 02:26:00,VALID,915.414,VALID,0,VALID,100,VALID,-0.0509425,VALID,18.8926,VALID,129,VALID,1.40252,
2003-12-07, 02:27:00,VALID,915.422,VALID,0,VALID,100,VALID,-0.0509425,VALID,18.8926,VALID,120,VALID,1.20839,
2003-12-07, 02:28:00,VALID,915.415,VALID,0,VALID,100,VALID,-0.0679233,VALID,18.8822,VALID,162,VALID,0.675305,
2003-12-07, 02:29:00,VALID,915.42,VALID,0,VALID,100,VALID,-0.0339617,VALID,18.9155,VALID,156,VALID,0.622582,
2003-12-07, 02:30:01,VALID,915.415,VALID,0,VALID,100,VALID,-0.0169808,VALID,18.9021,VALID,137,VALID,1.49014,
2003-12-07, 02:31:00,VALID,915.41,VALID,0,VALID,100,VALID,-0.0169808,VALID,18.9021,VALID,135,VALID,1.23531,
2003-12-07, 02:32:01,VALID,915.398,VALID,0,VALID,100,VALID,0,VALID,18.8921,VALID,138,VALID,0.65608,
2003-12-07, 02:33:00,VALID,915.389,VALID,0,VALID,100,VALID,0,VALID,18.9023,VALID,131,VALID,0.965116,
2003-12-07, 02:34:01,VALID,915.384,VALID,0,VALID,100,VALID,-0.0339617,VALID,18.9058,VALID,145,VALID,0.833629,
2003-12-07, 02:35:01,VALID,915.362,VALID,0,VALID,100,VALID,0,VALID,18.8958,VALID,137,VALID,1.69401,
2003-12-07, 02:36:01,VALID,915.364,VALID,0,VALID,100,VALID,-0.0679233,VALID,18.8797,VALID,134,VALID,1.30396,
2003-12-07, 02:37:01,VALID,915.346,VALID,0,VALID,100,VALID,-0.0339617,VALID,18.8832,VALID,135,VALID,1.81428,
2003-12-07, 02:38:00,VALID,915.345,VALID,0,VALID,100,VALID,-0.0339617,VALID,18.8732,VALID,113,VALID,1.36319,
2003-12-07, 02:39:00,VALID,915.336,VALID,0,VALID,100,VALID,-0.0169808,VALID,18.8735,VALID,137,VALID,1.64662,
2003-12-07, 02:40:01,VALID,915.324,VALID,0,VALID,100,VALID,0,VALID,18.8606,VALID,123,VALID,1.9916,
2003-12-07, 02:41:00,VALID,915.305,VALID,0,VALID,100,VALID,0,VALID,18.8504,VALID,132,VALID,2.67746,
2003-12-07, 02:42:00,VALID,915.33,VALID,0,VALID,100,VALID,-0.0679233,VALID,18.8767,VALID,143,VALID,1.94855,
2003-12-07, 02:43:00,VALID,915.308,VALID,0,VALID,100,VALID,-0.0509425,VALID,18.8894,VALID,128,VALID,1.12427,
2003-12-07, 02:44:01,VALID,915.311,VALID,0,VALID,100,VALID,-0.0339617,VALID,18.8933,VALID,140,VALID,1.88081,
2003-12-07, 02:45:01,VALID,915.31,VALID,0,VALID,99.9563,VALID,-0.0679233,VALID,18.8772,VALID,124,VALID,2.37054,
2003-12-07, 02:46:00,VALID,915.317,VALID,0,VALID,99.7765,VALID,-0.0849042,VALID,18.8735,VALID,103,VALID,2.05098,
2003-12-07, 02:47:00,VALID,915.304,VALID,0,VALID,99.6531,VALID,-0.0509425,VALID,18.8996,VALID,127,VALID,1.65607,
2003-12-07, 02:48:01,VALID,915.312,VALID,0,VALID,99.5081,VALID,-0.0169808,VALID,18.9025,VALID,128,VALID,1.92357,
2003-12-07, 02:49:01,VALID,915.3,VALID,0,VALID,99.2665,VALID,-0.0339617,VALID,18.9023,VALID,128,VALID,2.48544,
2003-12-07, 02:50:01,VALID,915.299,VALID,0,VALID,99.058,VALID,-0.0339617,VALID,18.9083,VALID,122,VALID,2.24382,
2003-12-07, 02:51:01,VALID,915.288,VALID,0,VALID,98.9385,VALID,-0.0169808,VALID,18.9212,VALID,130,VALID,2.07775,
2003-12-07, 02:52:00,VALID,915.284,VALID,0,VALID,98.796,VALID,-0.0509425,VALID,18.9378,VALID,153,VALID,1.91462,
2003-12-07, 02:53:01,VALID,915.286,VALID,0,VALID,98.8126,VALID,0,VALID,18.9341,VALID,140,VALID,1.83594,
2003-12-07, 02:54:01,VALID,915.276,VALID,0,VALID,98.927,VALID,-0.0509425,VALID,18.9281,VALID,135,VALID,1.46726,
2003-12-07, 02:55:01,VALID,915.277,VALID,0,VALID,98.9601,VALID,-0.0509425,VALID,18.9122,VALID,148,VALID,1.44457,
2003-12-07, 02:56:01,VALID,915.264,VALID,0,VALID,98.9436,VALID,-0.0339617,VALID,18.8862,VALID,135,VALID,1.81845,
2003-12-07, 02:57:01,VALID,915.263,VALID,0,VALID,99.016,VALID,-0.0679233,VALID,18.8799,VALID,145,VALID,1.49041,
2003-12-07, 02:58:01,VALID,915.251,VALID,0,VALID,99.119,VALID,-0.0509425,VALID,18.8698,VALID,139,VALID,1.4657,
2003-12-07, 02:59:01,VALID,915.224,VALID,0,VALID,99.1559,VALID,-0.0679233,VALID,18.8767,VALID,128,VALID,1.35689,
2003-12-07, 03:00:01,VALID,915.208,VALID,0,VALID,99.1686,VALID,-0.0339617,VALID,18.8541,VALID,150,VALID,0.903472,
2003-12-07, 03:01:01,VALID,915.205,VALID,0,VALID,99.0898,VALID,-0.0339617,VALID,18.8511,VALID,125,VALID,1.91007,
2003-12-07, 03:02:01,VALID,915.189,VALID,0,VALID,98.9143,VALID,-0.0679233,VALID,18.8474,VALID,140,VALID,2.29706,
2003-12-07, 03:03:01,VALID,915.185,VALID,0,VALID,98.6956,VALID,-0.0679233,VALID,18.8732,VALID,126,VALID,2.24419,
2003-12-07, 03:04:01,VALID,915.193,VALID,0,VALID,98.3764,VALID,-0.0169808,VALID,18.9122,VALID,127,VALID,2.52289,
2003-12-07, 03:05:01,VALID,915.194,VALID,0,VALID,98.0509,VALID,0,VALID,18.9503,VALID,133,VALID,1.87207,
2003-12-07, 03:06:01,VALID,915.207,VALID,0,VALID,97.8411,VALID,-0.0339617,VALID,18.9962,VALID,130,VALID,2.1471,
2003-12-07, 03:07:01,VALID,915.191,VALID,0,VALID,97.7254,VALID,-0.0679233,VALID,19.0218,VALID,115,VALID,2.03409,
2003-12-07, 03:08:01,VALID,915.185,VALID,0,VALID,97.6224,VALID,-0.0509425,VALID,19.0347,VALID,118,VALID,1.82724,
2003-12-07, 03:09:01,VALID,915.175,VALID,0,VALID,97.4418,VALID,-0.0509425,VALID,19.0573,VALID,135,VALID,2.07069,
2003-12-07, 03:10:01,VALID,915.181,VALID,0,VALID,97.4189,VALID,-0.0679233,VALID,19.0546,VALID,137,VALID,1.89489,
2003-12-07, 03:11:01,VALID,915.188,VALID,0.2,VALID,97.3439,VALID,-0.0679233,VALID,19.0384,VALID,145,VALID,2.37234,
2003-12-07, 03:12:01,VALID,915.179,VALID,0,VALID,97.4443,VALID,-0.101885,VALID,19.0384,VALID,132,VALID,2.18731,
2003-12-07, 03:13:01,VALID,915.169,VALID,0,VALID,97.4799,VALID,-0.0679233,VALID,19.0451,VALID,129,VALID,2.0229,
2003-12-07, 03:14:01,VALID,915.176,VALID,0,VALID,97.4113,VALID,-0.0849042,VALID,19.0349,VALID,142,VALID,2.04148,
2003-12-07, 03:15:01,VALID,915.183,VALID,0,VALID,97.3935,VALID,-0.0849042,VALID,19.0481,VALID,130,VALID,1.85538,
2003-12-07, 03:16:01,VALID,915.162,VALID,0,VALID,97.5219,VALID,-0.0849042,VALID,19.0345,VALID,134,VALID,1.36868,
2003-12-07, 03:17:01,VALID,915.167,VALID,0,VALID,97.7037,VALID,-0.0509425,VALID,19.0252,VALID,131,VALID,1.91521,
2003-12-07, 03:18:01,VALID,915.15,VALID,0,VALID,97.8601,VALID,-0.0509425,VALID,19.0061,VALID,143,VALID,1.87633,
2003-12-07, 03:19:01,VALID,915.14,VALID,0,VALID,97.9097,VALID,-0.0509425,VALID,18.9927,VALID,148,VALID,2.16692,
2003-12-07, 03:20:01,VALID,915.14,VALID,0,VALID,97.8512,VALID,-0.0679233,VALID,18.9992,VALID,141,VALID,2.13935,
2003-12-07, 03:21:01,VALID,915.138,VALID,0,VALID,97.733,VALID,-0.0679233,VALID,19.0315,VALID,138,VALID,1.59531,
2003-12-07, 03:22:01,VALID,915.142,VALID,0,VALID,97.7343,VALID,-0.0339617,VALID,19.0444,VALID,135,VALID,1.3498,
2003-12-07, 03:23:01,VALID,915.146,VALID,0,VALID,97.7228,VALID,-0.0849042,VALID,19.0479,VALID,134,VALID,2.0793,
2003-12-07, 03:24:01,VALID,915.138,VALID,0,VALID,97.6936,VALID,-0.0509425,VALID,19.0441,VALID,137,VALID,1.56323,
2003-12-07, 03:25:01,VALID,915.138,VALID,0,VALID,97.9441,VALID,-0.0169808,VALID,19.0441,VALID,143,VALID,1.61446,
2003-12-07, 03:26:01,VALID,915.132,VALID,0,VALID,98.1106,VALID,-0.0509425,VALID,19.0449,VALID,147,VALID,1.59561,
2003-12-07, 03:27:01,VALID,915.136,VALID,0,VALID,98.2976,VALID,-0.0849042,VALID,19.0252,VALID,150,VALID,1.65048,
2003-12-07, 03:28:01,VALID,915.135,VALID,0,VALID,98.4781,VALID,-0.0509425,VALID,18.9994,VALID,155,VALID,1.119,
2003-12-07, 03:29:01,VALID,915.142,VALID,0,VALID,98.5646,VALID,-0.0679233,VALID,18.983,VALID,136,VALID,1.66425,
2003-12-07, 03:30:01,VALID,915.154,VALID,0,VALID,98.6129,VALID,-0.0509425,VALID,18.96,VALID,140,VALID,1.42118,
2003-12-07, 03:31:00,VALID,915.151,VALID,0,VALID,98.674,VALID,-0.0509425,VALID,18.9706,VALID,140,VALID,1.47729,
2003-12-07, 03:32:00,VALID,915.147,VALID,0,VALID,98.7681,VALID,-0.0679233,VALID,18.9669,VALID,176,VALID,0.821766,
2003-12-07, 03:33:00,VALID,915.14,VALID,0,VALID,98.8698,VALID,-0.0849042,VALID,18.9641,VALID,162,VALID,0.964571,
2003-12-07, 03:34:00,VALID,915.137,VALID,0,VALID,98.9626,VALID,-0.0509425,VALID,18.9565,VALID,146,VALID,1.44289,
2003-12-07, 03:35:00,VALID,915.13,VALID,0,VALID,99.0046,VALID,-0.0679233,VALID,18.9771,VALID,163,VALID,1.07546,
2003-12-07, 03:36:00,VALID,915.133,VALID,0,VALID,99.0326,VALID,-0.0849042,VALID,18.9731,VALID,123,VALID,1.48642,
2003-12-07, 03:37:00,VALID,915.138,VALID,0,VALID,99.0109,VALID,-0.0339617,VALID,19.0091,VALID,140,VALID,1.47051,
2003-12-07, 03:38:00,VALID,915.137,VALID,0,VALID,99.0046,VALID,-0.0339617,VALID,19.0056,VALID,134,VALID,1.36756,
2003-12-07, 03:39:00,VALID,915.128,VALID,0,VALID,99.0237,VALID,-0.0339617,VALID,19.0089,VALID,133,VALID,1.46354,
2003-12-07, 03:40:00,VALID,915.12,VALID,0,VALID,99.0542,VALID,-0.0509425,VALID,19.0086,VALID,137,VALID,1.6081,
2003-12-07, 03:41:00,VALID,915.125,VALID,0,VALID,99.0669,VALID,-0.0679233,VALID,19.0317,VALID,119,VALID,1.63993,
2003-12-07, 03:42:00,VALID,915.142,VALID,0,VALID,99.0287,VALID,-0.0509425,VALID,19.0374,VALID,153,VALID,0.975868,